CQ0XPA-11 Weather Reports


time (UTC)temp
C
wind
direction
speed
KPH
gust
KPH
rain 1hr
cm
rain 24hr
cm
rain mn
cm
humidity
%
barometer
mb
20180625193710 21 67 1.6 6.4 0.00 0.00 0.00 75 1011.9
20180625193507 21 67 3.2 6.4 0.00 0.00 0.00 75 1011.9
20180625193306 21 33 3.2 6.4 0.00 0.00 0.00 75 1011.9
20180625193103 21 67 3.2 6.4 0.00 0.00 0.00 75 1011.9
20180625192901 21 67 3.2 6.4 0.00 0.00 0.00 75 1011.9
20180625192659 21 67 1.6 6.4 0.00 0.00 0.00 74 1012.0
20180625192457 21 0 1.6 6.4 0.00 0.00 0.00 74 1012.0
20180625192255 21 67 3.2 6.4 0.00 0.00 0.00 74 1012.0
20180625192053 21 33 1.6 6.4 0.00 0.00 0.00 74 1012.0
20180625191851 21 45 4.8 6.4 0.00 0.00 0.00 74 1011.9
20180625191649 21 67 1.6 6.4 0.00 0.00 0.00 74 1011.9
20180625191446 21 67 4.8 6.4 0.00 0.00 0.00 74 1011.9
20180625191245 21 67 3.2 6.4 0.00 0.00 0.00 74 1011.9
20180625191042 21 67 0.0 9.7 0.00 0.00 0.00 74 1011.8
20180625190841 21 270 6.4 9.7 0.00 0.00 0.00 74 1011.8
20180625190638 21 0 4.8 8.0 0.00 0.00 0.00 74 1011.8
20180625190437 21 67 4.8 11.3 0.00 0.00 0.00 74 1011.8
20180625190234 21 67 3.2 11.3 0.00 0.00 0.00 74 1011.8
20180625190032 21 67 4.8 8.0 0.00 0.00 0.00 74 1011.8
20180625185830 21 67 4.8 8.0 0.00 0.00 0.00 73 1011.8
20180625185628 21 33 3.2 8.0 0.00 0.00 0.00 73 1011.8
20180625185426 21 67 8.0 9.7 0.00 0.00 0.00 72 1011.7
20180625185224 22 33 6.4 9.7 0.00 0.00 0.00 72 1011.9
20180625185022 22 33 6.4 9.7 0.00 0.00 0.00 71 1011.9
20180625184820 22 67 6.4 9.7 0.00 0.00 0.00 71 1011.9
20180625184617 22 67 4.8 11.3 0.00 0.00 0.00 71 1011.8
20180625184416 22 67 1.6 11.3 0.00 0.00 0.00 70 1011.8
20180625184213 22 33 9.7 9.7 0.00 0.00 0.00 71 1011.7
20180625184012 22 33 4.8 11.3 0.00 0.00 0.00 71 1011.7
20180625183809 22 67 6.4 11.3 0.00 0.00 0.00 70 1011.7
20180625183608 22 67 4.8 9.7 0.00 0.00 0.00 70 1011.7
20180625183405 22 67 6.4 11.3 0.00 0.00 0.00 71 1011.6
20180625183204 22 67 8.0 11.3 0.00 0.00 0.00 70 1011.7
20180625183001 22 56 4.8 9.7 0.00 0.00 0.00 70 1011.8
20180625182759 22 33 6.4 12.9 0.00 0.00 0.00 69 1011.7
20180625182355 23 67 6.4 9.7 0.00 0.00 0.00 70 1011.7
20180625182153 23 67 6.4 9.7 0.00 0.00 0.00 70 1011.6
20180625181951 23 33 9.7 9.7 0.00 0.00 0.00 70 1011.6
20180625181749 23 67 8.0 8.0 0.00 0.00 0.00 71 1011.6
20180625181547 23 315 8.0 11.3 0.00 0.00 0.00 70 1011.7
20180625181344 23 67 3.2 11.3 0.00 0.00 0.00 71 1011.7
20180625181143 23 270 4.8 8.0 0.00 0.00 0.00 71 1011.7
20180625180940 23 67 6.4 9.7 0.00 0.00 0.00 70 1011.6
20180625180739 23 67 6.4 9.7 0.00 0.00 0.00 71 1011.6
20180625180536 23 67 4.8 9.7 0.00 0.00 0.00 71 1011.6
20180625180335 23 11 8.0 9.7 0.00 0.00 0.00 72 1011.5
20180625180132 23 270 3.2 8.0 0.00 0.00 0.00 71 1011.6
20180625175930 23 0 3.2 9.7 0.00 0.00 0.00 71 1011.6
20180625175728 23 67 9.7 9.7 0.00 0.00 0.00 71 1011.7
20180625175526 23 67 4.8 8.0 0.00 0.00 0.00 72 1011.5
20180625175324 23 33 8.0 11.3 0.00 0.00 0.00 72 1011.6
20180625175122 23 45 6.4 11.3 0.00 0.00 0.00 72 1011.5
20180625174920 23 67 4.8 11.3 0.00 0.00 0.00 72 1011.4
20180625174718 23 67 8.0 12.9 0.00 0.00 0.00 72 1011.5
20180625174515 23 0 8.0 12.9 0.00 0.00 0.00 72 1011.5
20180625174314 23 67 6.4 11.3 0.00 0.00 0.00 73 1011.4
20180625174111 22 315 8.0 11.3 0.00 0.00 0.00 73 1011.6
20180625173910 22 67 4.8 8.0 0.00 0.00 0.00 74 1011.5
20180625173707 22 270 6.4 8.0 0.00 0.00 0.00 73 1011.5
20180625173506 22 33 4.8 8.0 0.00 0.00 0.00 73 1011.5
20180625173303 22 45 6.4 8.0 0.00 0.00 0.00 74 1011.5
20180625173101 22 270 8.0 9.7 0.00 0.00 0.00 74 1011.5
20180625172859 22 67 4.8 9.7 0.00 0.00 0.00 74 1011.5
20180625172657 22 0 3.2 8.0 0.00 0.00 0.00 74 1011.5
20180625172455 22 0 3.2 6.4 0.00 0.00 0.00 75 1011.5
20180625172253 22 0 6.4 9.7 0.00 0.00 0.00 75 1011.5
20180625172051 22 67 6.4 9.7 0.00 0.00 0.00 74 1011.5
20180625171849 22 33 6.4 8.0 0.00 0.00 0.00 75 1011.5
20180625171646 22 67 1.6 8.0 0.00 0.00 0.00 74 1011.4
20180625171445 22 67 3.2 6.4 0.00 0.00 0.00 74 1011.5
20180625171242 23 315 4.8 9.7 0.00 0.00 0.00 74 1011.5
20180625171041 23 67 8.0 9.7 0.00 0.00 0.00 73 1011.4
20180625170838 23 33 3.2 8.0 0.00 0.00 0.00 74 1011.5
20180625170637 23 67 6.4 8.0 0.00 0.00 0.00 72 1011.4
20180625170434 23 67 6.4 8.0 0.00 0.00 0.00 73 1011.4
20180625170232 23 67 4.8 8.0 0.00 0.00 0.00 73 1011.4
20180625170030 24 33 3.2 4.8 0.00 0.00 0.00 73 1011.5
20180625165828 24 135 3.2 6.4 0.00 0.00 0.00 73 1011.3
20180625165626 24 67 1.6 6.4 0.00 0.00 0.00 73 1011.4
20180625165424 25 33 4.8 6.4 0.00 0.00 0.00 72 1011.3
20180625165222 25 33 3.2 6.4 0.00 0.00 0.00 72 1011.4
20180625165020 24 67 1.6 6.4 0.00 0.00 0.00 73 1011.4
20180625164817 24 247 1.6 6.4 0.00 0.00 0.00 73 1011.4
20180625164413 24 67 0.0 8.0 0.00 0.00 0.00 73 1011.4
20180625164212 24 270 4.8 6.4 0.00 0.00 0.00 73 1011.4
20180625164009 24 67 1.6 8.0 0.00 0.00 0.00 74 1011.4
20180625163808 24 67 1.6 8.0 0.00 0.00 0.00 74 1011.3
20180625163605 24 180 1.6 8.0 0.00 0.00 0.00 74 1011.3
20180625163403 24 0 3.2 8.0 0.00 0.00 0.00 74 1011.4
20180625163201 23 258 4.8 9.7 0.00 0.00 0.00 74 1011.4
20180625162959 23 22 1.6 9.7 0.00 0.00 0.00 74 1011.3
20180625162757 23 33 3.2 9.7 0.00 0.00 0.00 74 1011.4
20180625162555 24 56 9.7 9.7 0.00 0.00 0.00 74 1011.4
20180625162353 24 33 3.2 8.0 0.00 0.00 0.00 73 1011.4
20180625162151 24 33 3.2 8.0 0.00 0.00 0.00 74 1011.5
20180625161747 25 67 3.2 12.9 0.00 0.00 0.00 73 1011.4
20180625161544 25 67 9.7 12.9 0.00 0.00 0.00 72 1011.4
20180625161343 25 67 3.2 9.7 0.00 0.00 0.00 73 1011.4
20180625161140 25 67 1.6 8.0 0.00 0.00 0.00 74 1011.3
20180625160939 25 33 3.2 6.4 0.00 0.00 0.00 75 1011.4
20180625160736 25 67 1.6 9.7 0.00 0.00 0.00 74 1011.4
20180625160534 25 0 6.4 9.7 0.00 0.00 0.00 75 1011.4
20180625155928 24 67 1.6 6.4 0.00 0.00 0.00 78 1011.4
20180625155726 24 67 3.2 6.4 0.00 0.00 0.00 78 1011.4
20180625155524 23 270 3.2 6.4 0.00 0.00 0.00 79 1011.4
20180625154915 23 67 3.2 6.4 0.00 0.00 0.00 82 1011.5
20180625154712 22 67 0.0 4.8 0.00 0.00 0.00 82 1011.5
20180625154511 22 67 3.2 3.2 0.00 0.00 0.00 82 1011.6
20180625154308 22 67 0.0 3.2 0.00 0.00 0.00 82 1011.6
20180625154107 22 0 3.2 4.8 0.00 0.00 0.00 82 1011.6
20180625153904 22 0 1.6 4.8 0.00 0.00 0.00 82 1011.5
20180625153702 22 67 0.0 6.4 0.00 0.00 0.00 82 1011.5
20180625153500 22 67 0.0 6.4 0.00 0.00 0.00 81 1011.5
20180625153258 22 0 4.8 6.4 0.00 0.00 0.00 81 1011.5
20180625153056 22 67 3.2 6.4 0.00 0.00 0.00 81 1011.5
20180625152854 22 270 0.0 6.4 0.00 0.00 0.00 81 1011.5
20180625152652 22 67 3.2 4.8 0.00 0.00 0.00 81 1011.6
20180625152450 22 22 3.2 4.8 0.00 0.00 0.00 80 1011.6
20180625152248 22 247 1.6 4.8 0.00 0.00 0.00 80 1011.5
20180625152046 22 33 4.8 6.4 0.00 0.00 0.00 80 1011.6
20180625151843 23 270 1.6 6.4 0.00 0.00 0.00 80 1011.7
20180625151642 23 67 3.2 6.4 0.00 0.00 0.00 79 1011.5
20180625151439 23 67 4.8 4.8 0.00 0.00 0.00 79 1011.6
20180625151238 23 67 1.6 6.4 0.00 0.00 0.00 79 1011.6
20180625151035 23 67 3.2 6.4 0.00 0.00 0.00 79 1011.5
20180625150833 23 270 3.2 4.8 0.00 0.00 0.00 79 1011.6
20180625150631 23 315 4.8 4.8 0.00 0.00 0.00 79 1011.5
20180625150429 23 67 1.6 4.8 0.00 0.00 0.00 78 1011.5
20180625150227 23 270 1.6 4.8 0.00 0.00 0.00 78 1011.5
20180625150025 23 270 1.6 3.2 0.00 0.00 0.00 79 1011.6
20180625145823 23 0 1.6 4.8 0.00 0.00 0.00 79 1011.5
20180625145621 23 90 4.8 4.8 0.00 0.00 0.00 79 1011.6
20180625145418 23 225 0.0 1.6 0.00 0.00 0.00 79 1011.6
20180625145217 23 67 1.6 4.8 0.00 0.00 0.00 79 1011.6
20180625145014 23 67 4.8 4.8 0.00 0.00 0.00 80 1011.7
20180625144813 23 270 0.0 4.8 0.00 0.00 0.00 80 1011.5
20180625144610 23 67 1.6 3.2 0.00 0.00 0.00 80 1011.5
20180625144409 23 247 0.0 3.2 0.00 0.00 0.00 80 1011.5
20180625144206 23 270 3.2 6.4 0.00 0.00 0.00 80 1011.6
20180625144005 23 270 1.6 6.4 0.00 0.00 0.00 80 1011.7
20180625143802 23 67 4.8 6.4 0.00 0.00 0.00 80 1011.6
20180625143600 23 67 4.8 6.4 0.00 0.00 0.00 81 1011.6
20180625143358 23 67 1.6 6.4 0.00 0.00 0.00 80 1011.6
20180625143156 22 67 1.6 6.4 0.00 0.00 0.00 81 1011.7
20180625142954 22 67 6.4 6.4 0.00 0.00 0.00 81 1011.7
20180625142752 22 270 0.0 3.2 0.00 0.00 0.00 81 1011.7
20180625142550 22 90 1.6 4.8 0.00 0.00 0.00 81 1011.7
20180625142348 22 90 1.6 4.8 0.00 0.00 0.00 82 1011.7
20180625142145 22 90 1.6 4.8 0.00 0.00 0.00 81 1011.8
20180625141944 22 67 4.8 4.8 0.00 0.00 0.00 81 1011.8
20180625141741 22 67 3.2 6.4 0.00 0.00 0.00 82 1011.8
20180625141540 22 67 4.8 6.4 0.00 0.00 0.00 81 1011.8
20180625141337 22 90 1.6 6.4 0.00 0.00 0.00 81 1011.9
20180625141136 22 67 3.2 6.4 0.00 0.00 0.00 81 1011.9
20180625140933 22 90 6.4 6.4 0.00 0.00 0.00 81 1011.8
20180625140731 22 270 3.2 6.4 0.00 0.00 0.00 80 1011.8
20180625140529 22 270 0.0 3.2 0.00 0.00 0.00 81 1011.9
20180625140327 22 0 1.6 4.8 0.00 0.00 0.00 81 1011.8
20180625140125 22 67 3.2 4.8 0.00 0.00 0.00 81 1011.8
20180625135923 22 67 3.2 4.8 0.00 0.00 0.00 82 1011.8
20180625135721 22 270 3.2 3.2 0.00 0.00 0.00 82 1011.9
20180625135115 22 67 1.6 3.2 0.00 0.00 0.00 82 1011.9
20180625134912 22 90 1.6 6.4 0.00 0.00 0.00 82 1011.8
20180625134711 22 33 1.6 6.4 0.00 0.00 0.00 82 1011.8
20180625134508 22 33 3.2 4.8 0.00 0.00 0.00 82 1011.9
20180625134307 22 67 3.2 4.8 0.00 0.00 0.00 82 1011.9
20180625134104 22 270 3.2 6.4 0.00 0.00 0.00 81 1011.8
20180625133902 22 270 3.2 6.4 0.00 0.00 0.00 80 1011.8
20180625133700 22 270 3.2 3.2 0.00 0.00 0.00 81 1011.9
20180625133458 22 67 1.6 4.8 0.00 0.00 0.00 82 1011.9
20180625133256 22 258 1.6 4.8 0.00 0.00 0.00 81 1011.9
20180625133054 22 67 4.8 4.8 0.00 0.00 0.00 81 1012.0
20180625132852 22 270 1.6 3.2 0.00 0.00 0.00 82 1012.0
20180625132650 22 67 0.0 3.2 0.00 0.00 0.00 81 1012.0
20180625132447 22 67 0.0 4.8 0.00 0.00 0.00 80 1012.0
20180625132246 22 67 0.0 4.8 0.00 0.00 0.00 80 1012.0
20180625132043 22 67 1.6 4.8 0.00 0.00 0.00 80 1012.1
20180625131842 22 33 4.8 6.4 0.00 0.00 0.00 80 1012.0
20180625131639 22 270 1.6 6.4 0.00 0.00 0.00 80 1012.0
20180625131438 22 270 1.6 6.4 0.00 0.00 0.00 80 1012.1
20180625131235 23 67 1.6 3.2 0.00 0.00 0.00 80 1012.0
20180625131033 23 67 1.6 3.2 0.00 0.00 0.00 80 1012.0
20180625130831 23 67 3.2 4.8 0.00 0.00 0.00 80 1012.0
20180625130629 23 0 1.6 4.8 0.00 0.00 0.00 80 1012.0
20180625130427 23 67 3.2 4.8 0.00 0.00 0.00 80 1011.9
20180625130225 23 33 1.6 4.8 0.00 0.00 0.00 81 1012.0
20180625130023 23 270 0.0 6.4 0.00 0.00 0.00 81 1012.0
20180625125821 23 67 1.6 6.4 0.00 0.00 0.00 81 1011.9
20180625125618 22 0 1.6 4.8 0.00 0.00 0.00 82 1011.9
20180625125417 22 0 3.2 4.8 0.00 0.00 0.00 82 1012.0
20180625125214 22 67 3.2 4.8 0.00 0.00 0.00 81 1012.1
20180625125013 22 270 3.2 4.8 0.00 0.00 0.00 81 1011.9
20180625124810 22 67 3.2 4.8 0.00 0.00 0.00 81 1011.9
20180625124609 22 270 4.8 4.8 0.00 0.00 0.00 81 1012.0
20180625124406 22 67 1.6 6.4 0.00 0.00 0.00 83 1012.0
20180625124204 22 33 4.8 6.4 0.00 0.00 0.00 82 1012.1
20180625124002 22 33 1.6 4.8 0.00 0.00 0.00 83 1012.1
20180625123800 22 67 1.6 6.4 0.00 0.00 0.00 83 1012.2
20180625123558 22 67 3.2 6.4 0.00 0.00 0.00 83 1012.1
20180625123356 22 247 1.6 4.8 0.00 0.00 0.00 83 1012.0
20180625123154 22 258 4.8 4.8 0.00 0.00 0.00 83 1012.1
20180625122952 21 67 0.0 3.2 0.00 0.00 0.00 85 1012.1
20180625122749 21 0 1.6 3.2 0.00 0.00 0.00 85 1012.1
20180625122548 21 67 1.6 6.4 0.00 0.00 0.00 86 1012.1
20180625122345 21 33 4.8 6.4 0.00 0.00 0.00 86 1012.1
20180625121941 21 33 4.8 4.8 0.00 0.00 0.00 86 1012.0
20180625121740 21 67 1.6 4.8 0.00 0.00 0.00 87 1012.1
20180625121537 21 270 1.6 6.4 0.00 0.00 0.00 87 1012.1
20180625121335 21 270 3.2 6.4 0.00 0.00 0.00 85 1012.1
20180625121133 21 270 1.6 4.8 0.00 0.00 0.00 87 1012.2
20180625120931 21 67 3.2 4.8 0.00 0.00 0.00 87 1012.0
20180625120729 21 112 1.6 4.8 0.00 0.00 0.00 87 1012.0
20180625115112 20 270 0.0 3.2 0.00 0.00 0.00 89 1012.1
20180625114911 20 112 0.0 3.2 0.00 0.00 0.00 89 1012.1
20180625114708 20 112 1.6 3.2 0.00 0.00 0.00 89 1012.2
20180625114506 20 112 1.6 3.2 0.00 0.00 0.00 88 1012.1
20180625114304 20 270 0.0 6.4 0.00 0.00 0.00 88 1012.1
20180625113900 20 247 6.4 6.4 0.00 0.00 0.00 88 1012.1
20180625113456 20 270 1.6 4.8 0.00 0.00 0.00 89 1012.2
20180625113254 20 270 1.6 3.2 0.00 0.00 0.00 89 1012.1
20180625113051 20 112 1.6 8.0 0.00 0.00 0.00 89 1012.2
20180625112850 20 258 4.8 8.0 0.00 0.00 0.00 88 1012.1
20180625112648 20 247 8.0 8.0 0.00 0.00 0.00 89 1012.1
20180625112446 20 270 0.0 3.2 0.00 0.00 0.00 90 1012.1
20180625112243 20 225 1.6 4.8 0.00 0.00 0.00 89 1012.1
20180625112042 20 270 1.6 8.0 0.00 0.00 0.00 89 1012.2
20180625111839 20 258 3.2 8.0 0.00 0.00 0.00 88 1012.1
20180625111637 20 258 6.4 8.0 0.00 0.00 0.00 88 1012.1
20180625111233 20 112 3.2 4.8 0.00 0.00 0.00 90 1012.1
20180625111031 20 270 1.6 3.2 0.00 0.00 0.00 91 1012.1
20180625110829 20 112 1.6 3.2 0.00 0.00 0.00 91 1012.1
20180625110627 20 112 0.0 3.2 0.00 0.00 0.00 91 1012.2
20180625110425 20 112 3.2 6.4 0.00 0.00 0.00 90 1012.2
20180625110223 20 270 1.6 6.4 0.00 0.00 0.00 90 1012.2
20180625110021 19 112 0.0 4.8 0.00 0.00 0.00 92 1012.2
20180625105411 19 112 1.6 6.4 0.00 0.00 0.00 93 1012.1
20180625105210 19 270 0.0 6.4 0.00 0.00 0.00 92 1012.1
20180625105009 19 258 0.0 3.2 0.00 0.00 0.00 93 1012.0
20180625104805 19 270 1.6 3.2 0.00 0.00 0.00 92 1012.1
20180625104603 19 270 1.6 3.2 0.00 0.00 0.00 93 1012.0
20180625104401 19 270 1.6 1.6 0.00 0.00 0.00 93 1012.1
20180625104159 19 112 0.0 4.8 0.00 0.00 0.00 93 1012.2
20180625103957 19 270 1.6 4.8 0.00 0.00 0.00 93 1012.2
20180625103755 19 270 1.6 4.8 0.00 0.00 0.00 92 1012.2
20180625103553 19 270 1.6 3.2 0.00 0.00 0.00 93 1012.2
20180625103351 19 67 3.2 6.4 0.00 0.00 0.00 93 1012.2
20180625103149 19 112 1.6 6.4 0.00 0.00 0.00 93 1012.2
20180625102946 19 270 3.2 3.2 0.00 0.00 0.00 92 1012.2
20180625102745 19 270 0.0 3.2 0.00 0.00 0.00 92 1012.1
20180625102542 19 270 1.6 6.4 0.00 0.00 0.00 92 1012.1
20180625102341 19 112 1.6 6.4 0.00 0.00 0.00 92 1012.2
20180625102138 19 112 3.2 6.4 0.00 0.00 0.00 92 1012.2
20180625101937 19 67 3.2 3.2 0.00 0.00 0.00 92 1012.2
20180625101734 19 112 0.0 3.2 0.00 0.00 0.00 93 1012.2
20180625101532 20 270 1.6 1.6 0.00 0.00 0.00 93 1012.2
20180625101330 20 270 1.6 3.2 0.00 0.00 0.00 92 1012.2
20180625101128 19 33 1.6 3.2 0.00 0.00 0.00 93 1012.1
20180625100926 19 0 1.6 3.2 0.00 0.00 0.00 93 1012.2
20180625100724 19 112 3.2 3.2 0.00 0.00 0.00 93 1012.1
20180625100522 19 112 0.0 4.8 0.00 0.00 0.00 93 1012.0
20180625100320 19 270 3.2 4.8 0.00 0.00 0.00 93 1012.0
20180625100117 19 112 1.6 4.8 0.00 0.00 0.00 93 1011.9
20180625095916 19 270 3.2 4.8 0.00 0.00 0.00 93 1011.9
20180625095713 19 225 1.6 6.4 0.00 0.00 0.00 93 1012.0
20180625095512 19 67 3.2 6.4 0.00 0.00 0.00 93 1012.0
20180625095309 19 112 1.6 4.8 0.00 0.00 0.00 94 1012.0
20180625095108 19 303 4.8 4.8 0.00 0.00 0.00 93 1012.0
20180625094703 19 112 1.6 3.2 0.00 0.00 0.00 95 1011.9
20180625094501 19 112 0.0 3.2 0.00 0.00 0.00 95 1011.8
20180625094259 18 112 3.2 3.2 0.00 0.00 0.00 95 1011.8
20180625094057 18 0 1.6 1.6 0.00 0.00 0.00 95 1011.8
20180625093855 18 270 1.6 3.2 0.00 0.00 0.00 95 1011.8
20180625093653 18 270 1.6 4.8 0.00 0.00 0.00 95 1011.8
20180625093451 18 270 1.6 4.8 0.00 0.00 0.00 95 1011.8
20180625093248 18 270 1.6 1.6 0.00 0.00 0.00 96 1011.8
20180625093047 18 67 0.0 3.2 0.00 0.00 0.00 96 1011.8
20180625092844 18 67 0.0 3.2 0.00 0.00 0.00 96 1011.7
20180625092643 18 270 3.2 3.2 0.00 0.00 0.00 96 1011.7
20180625092440 18 67 1.6 1.6 0.00 0.00 0.00 97 1011.7
20180625092239 18 67 0.0 1.6 0.00 0.00 0.00 97 1011.7
20180625092036 18 112 1.6 1.6 0.00 0.00 0.00 97 1011.7
20180625091834 18 270 0.0 1.6 0.00 0.00 0.00 98 1011.7
20180625091632 18 90 0.0 0.0 0.00 0.00 0.00 98 1011.7
20180625091430 18 270 0.0 0.0 0.00 0.00 0.00 98 1011.7
20180625091228 18 90 0.0 1.6 0.00 0.00 0.00 99 1011.6
20180625091026 18 270 0.0 1.6 0.00 0.00 0.00 99 1011.7
20180625090824 18 270 0.0 1.6 0.00 0.00 0.00 98 1011.7
20180625090622 18 337 1.6 1.6 0.00 0.00 0.00 98 1011.6
20180625090419 18 270 0.0 1.6 0.00 0.00 0.00 99 1011.7
20180625090218 18 0 1.6 1.6 0.00 0.00 0.00 99 1011.7
20180625090015 18 270 0.0 1.6 0.00 0.00 0.00 99 1011.7
20180625085814 18 270 1.6 1.6 0.00 0.00 0.00 99 1011.7
20180625085611 18 270 0.0 1.6 0.00 0.00 0.00 99 1011.7
20180625085410 18 270 0.0 1.6 0.00 0.00 0.00 99 1011.7
20180625085208 18 180 0.0 1.6 0.00 0.00 0.00 100 1011.7
20180625085005 18 270 0.0 1.6 0.00 0.00 0.00 99 1011.6
20180625084803 18 270 0.0 1.6 0.00 0.00 0.00 100 1011.6
20180625084601 18 337 0.0 1.6 0.00 0.00 0.00 99 1011.7
20180625084359 18 337 0.0 1.6 0.00 0.00 0.00 99 1011.7
20180625084157 18 270 0.0 1.6 0.00 0.00 0.00 100 1011.7
20180625083955 18 180 0.0 1.6 0.00 0.00 0.00 100 1011.7
20180625083753 18 337 0.0 1.6 0.00 0.00 0.00 100 1011.6
20180625083550 18 270 0.0 1.6 0.00 0.00 0.00 100 1011.6
20180625083349 17 67 0.0 1.6 0.00 0.00 0.00 100 1011.7
20180625083146 17 337 1.6 1.6 0.00 0.00 0.00 100 1011.7
20180625082945 17 270 0.0 0.0 0.00 0.00 0.00 100 1011.6
20180625082742 17 270 0.0 0.0 0.00 0.00 0.00 100 1011.5
20180625082541 17 270 0.0 0.0 0.00 0.00 0.00 100 1011.6
20180625082338 17 270 0.0 0.0 0.00 0.00 0.00 100 1011.6
20180625082137 17 270 0.0 0.0 0.00 0.00 0.00 100 1011.7
20180625081527 17 67 0.0 1.6 0.00 0.00 0.00 100 1011.6
20180625081323 17 270 0.0 1.6 0.00 0.00 0.00 100 1011.6
20180625081121 17 270 0.0 1.6 0.00 0.00 0.00 100 1011.6
20180625080919 17 270 0.0 1.6 0.00 0.00 0.00 100 1011.6
20180625080716 17 67 0.0 1.6 0.00 0.00 0.00 100 1011.6
20180625080515 17 270 0.0 1.6 0.00 0.00 0.00 100 1011.6
20180625080111 17 270 0.0 0.0 0.00 0.00 0.00 100 1011.4
20180625075908 17 270 0.0 1.6 0.00 0.00 0.00 100 1011.5
20180625075707 17 270 0.0 1.6 0.00 0.00 0.00 100 1011.5
20180625075504 17 270 1.6 1.6 0.00 0.00 0.00 100 1011.4
20180625075306 17 270 1.6 1.6 0.00 0.00 0.00 100 1011.3
20180625075100 17 270 0.0 1.6 0.00 0.00 0.00 100 1011.4
20180625074858 17 67 0.0 3.2 0.00 0.00 0.00 100 1011.3
20180625074656 17 112 0.0 3.2 0.00 0.00 0.00 100 1011.3
20180625074454 17 270 0.0 1.6 0.00 0.00 0.00 100 1011.3
20180625074050 17 270 0.0 0.0 0.00 0.00 0.00 100 1011.3
20180625073847 17 270 0.0 1.6 0.00 0.00 0.00 100 1011.3
20180625073646 17 67 1.6 1.6 0.00 0.00 0.00 100 1011.2
20180625073242 16 67 0.0 3.2 0.00 0.00 0.00 100 1011.2
20180625073039 16 270 0.0 1.6 0.00 0.00 0.00 100 1011.2
20180625072838 16 180 0.0 1.6 0.00 0.00 0.00 100 1011.2
20180625072433 16 270 1.6 3.2 0.00 0.00 0.00 100 1011.1
20180625072231 16 270 0.0 3.2 0.00 0.00 0.00 100 1011.2
20180625072029 16 270 3.2 3.2 0.00 0.00 0.00 100 1011.3
20180625071827 16 270 0.0 1.6 0.00 0.00 0.00 100 1011.3
20180625071625 16 270 0.0 1.6 0.00 0.00 0.00 100 1011.3
20180625071423 16 270 1.6 1.6 0.00 0.00 0.00 100 1011.3
20180625071019 16 337 0.0 3.2 0.00 0.00 0.00 100 1011.2
20180625070817 16 270 0.0 1.6 0.00 0.00 0.00 100 1011.1
20180625070614 16 303 0.0 1.6 0.00 0.00 0.00 100 1011.2
20180625070413 16 270 1.6 1.6 0.00 0.00 0.00 100 1011.2
20180625070210 16 270 1.6 3.2 0.00 0.00 0.00 100 1011.1
20180625070009 16 270 1.6 3.2 0.00 0.00 0.00 100 1011.1
20180625065806 16 270 1.6 1.6 0.00 0.00 0.00 100 1011.2
20180625065604 16 337 0.0 1.6 0.00 0.00 0.00 100 1011.1
20180625065402 16 270 0.0 1.6 0.00 0.00 0.00 100 1011.0
20180625065200 16 270 0.0 1.6 0.00 0.00 0.00 100 1011.0
20180625064958 16 270 0.0 0.0 0.00 0.00 0.00 100 1011.0
20180625064756 16 270 0.0 3.2 0.00 0.00 0.00 100 1011.0
20180625064554 16 270 1.6 3.2 0.00 0.00 0.00 100 1011.0
20180625064352 16 270 0.0 3.2 0.00 0.00 0.00 100 1011.0
20180625063948 16 303 1.6 1.6 0.00 0.00 0.00 100 1010.9
20180625063745 16 270 0.0 0.0 0.00 0.00 0.00 100 1010.9
20180625063544 16 337 0.0 0.0 0.00 0.00 0.00 100 1010.8
20180625063341 16 337 0.0 1.6 0.00 0.00 0.00 100 1010.8
20180625063140 16 135 0.0 1.6 0.00 0.00 0.00 100 1010.7
20180625062937 16 135 0.0 0.0 0.00 0.00 0.00 100 1010.9
20180625062736 16 135 0.0 0.0 0.00 0.00 0.00 100 1010.8
20180625062533 16 270 0.0 1.6 0.00 0.00 0.00 100 1010.7
20180625062331 16 270 0.0 3.2 0.00 0.00 0.00 100 1010.9
20180625062129 16 270 0.0 3.2 0.00 0.00 0.00 100 1010.8
20180625061927 16 337 0.0 3.2 0.00 0.00 0.00 100 1010.7
20180625061725 16 270 1.6 3.2 0.00 0.00 0.00 100 1010.7
20180625061523 16 180 0.0 0.0 0.00 0.00 0.00 100 1010.8
20180625061321 16 270 0.0 0.0 0.00 0.00 0.00 100 1010.9
20180625061119 16 180 0.0 1.6 0.00 0.00 0.00 100 1010.7
20180625060916 16 270 0.0 1.6 0.00 0.00 0.00 100 1010.7
20180625060715 16 270 0.0 1.6 0.00 0.00 0.00 100 1010.7
20180625060512 16 112 0.0 1.6 0.00 0.00 0.00 100 1010.7
20180625060311 16 180 0.0 1.6 0.00 0.00 0.00 100 1010.7
20180625060108 16 135 1.6 1.6 0.00 0.00 0.00 100 1010.6
20180625055907 16 157 1.6 1.6 0.00 0.00 0.00 100 1010.6
20180625055704 16 146 0.0 1.6 0.00 0.00 0.00 100 1010.6
20180625055502 16 337 1.6 1.6 0.00 0.00 0.00 100 1010.7
20180625055300 15 90 0.0 1.6 0.00 0.00 0.00 100 1010.5
20180625055058 15 180 0.0 3.2 0.00 0.00 0.00 100 1010.4
20180625054856 15 135 3.2 3.2 0.00 0.00 0.00 100 1010.5
20180625054654 15 180 1.6 3.2 0.00 0.00 0.00 100 1010.6
20180625054452 15 180 0.0 3.2 0.00 0.00 0.00 100 1010.3
20180625054250 15 180 0.0 3.2 0.00 0.00 0.00 100 1010.4
20180625054047 15 135 0.0 3.2 0.00 0.00 0.00 100 1010.5
20180625053846 15 202 0.0 3.2 0.00 0.00 0.00 100 1010.4
20180625053643 15 135 0.0 3.2 0.00 0.00 0.00 100 1010.4
20180625053239 15 180 0.0 3.2 0.00 0.00 0.00 100 1010.5
20180625053038 15 135 0.0 3.2 0.00 0.00 0.00 100 1010.5
20180625052835 15 135 1.6 1.6 0.00 0.00 0.00 100 1010.5
20180625052633 15 180 1.6 3.2 0.00 0.00 0.00 100 1010.4
20180625052431 15 135 1.6 3.2 0.00 0.00 0.00 100 1010.4
20180625052229 15 180 0.0 1.6 0.00 0.00 0.00 100 1010.3
20180625052027 15 135 0.0 3.2 0.00 0.00 0.00 100 1010.3
20180625051825 15 112 1.6 3.2 0.00 0.00 0.00 100 1010.4
20180625051623 15 180 0.0 1.6 0.00 0.00 0.00 100 1010.4
20180625051421 15 112 1.6 1.6 0.00 0.00 0.00 100 1010.4
20180625051017 15 270 0.0 1.6 0.00 0.00 0.00 100 1010.4
20180625050613 15 135 0.0 1.6 0.00 0.00 0.00 100 1010.3
20180625050410 15 180 1.6 1.6 0.00 0.00 0.00 100 1010.2
20180625050209 15 180 0.0 1.6 0.00 0.00 0.00 100 1010.1
20180625050006 15 337 1.6 1.6 0.00 0.00 0.00 100 1010.2
20180625045804 15 270 0.0 0.0 0.00 0.00 0.00 100 1010.1
20180625045602 16 337 0.0 0.0 0.00 0.00 0.00 100 1010.2
20180625045400 16 337 0.0 1.6 0.00 0.00 0.00 100 1010.1
20180625045158 16 270 0.0 1.6 0.00 0.00 0.00 100 1010.1
20180625044956 16 337 0.0 1.6 0.00 0.00 0.00 100 1010.1
20180625044754 16 337 0.0 1.6 0.00 0.00 0.00 100 1010.0
20180625044552 16 180 0.0 0.0 0.00 0.00 0.00 100 1009.9
20180625044349 16 337 0.0 0.0 0.00 0.00 0.00 100 1009.9
20180625044148 16 225 0.0 0.0 0.00 0.00 0.00 100 1009.9
20180625043945 16 337 0.0 1.6 0.00 0.00 0.00 100 1009.9
20180625043744 16 135 1.6 1.6 0.00 0.00 0.00 100 1009.9
20180625043541 16 270 0.0 1.6 0.00 0.00 0.00 100 1009.9
20180625043340 16 135 0.0 1.6 0.00 0.00 0.00 100 1009.8
20180625043137 16 180 0.0 0.0 0.00 0.00 0.00 100 1009.9
20180625042935 16 337 0.0 0.0 0.00 0.00 0.00 100 1009.9
20180625042531 16 270 0.0 0.0 0.00 0.00 0.00 100 1009.8
20180625042127 16 270 0.0 1.6 0.00 0.00 0.00 100 1009.8
20180625041925 16 337 0.0 0.0 0.00 0.00 0.00 100 1009.8
20180625041319 16 270 0.0 3.2 0.00 0.00 0.00 100 1009.8
20180625040915 16 270 1.6 1.6 0.00 0.00 0.00 100 1009.8
20180625035702 16 0 0.0 1.6 0.00 0.00 0.00 100 1009.7
20180625035500 16 337 0.0 1.6 0.00 0.00 0.00 100 1009.7
20180625035258 16 90 1.6 1.6 0.00 0.00 0.00 100 1009.7
20180625035056 16 337 0.0 3.2 0.00 0.00 0.00 100 1009.8
20180625034854 16 180 1.6 6.4 0.00 0.00 0.00 100 1009.7
20180625034652 16 135 1.6 6.4 0.00 0.00 0.00 100 1009.7
20180625034450 16 180 3.2 3.2 0.00 0.00 0.00 100 1009.7
20180625034247 16 270 0.0 4.8 0.00 0.00 0.00 100 1009.8
20180625034046 16 270 0.0 4.8 0.00 0.00 0.00 100 1009.6
20180625033843 16 180 1.6 3.2 0.00 0.00 0.00 100 1009.8
20180625033434 16 337 0.0 4.8 0.00 0.00 0.00 100 1009.8
20180625033233 16 180 1.6 4.8 0.00 0.00 0.00 100 1009.8
20180625033031 16 270 0.0 1.6 0.00 0.00 0.00 100 1009.7
20180625032828 16 90 1.6 3.2 0.00 0.00 0.00 100 1009.7
20180625032626 16 337 1.6 3.2 0.00 0.00 0.00 100 1009.7
20180625032424 16 247 3.2 6.4 0.00 0.00 0.00 100 1009.7
20180625032222 16 337 1.6 6.4 0.00 0.00 0.00 100 1009.8
20180625032020 16 225 1.6 4.8 0.00 0.00 0.00 100 1009.7
20180625031413 16 337 0.0 1.6 0.00 0.00 0.00 100 1009.7
20180625031212 16 146 1.6 1.6 0.00 0.00 0.00 100 1009.6
20180625031009 16 270 0.0 1.6 0.00 0.00 0.00 100 1009.6
20180625030808 16 337 0.0 1.6 0.00 0.00 0.00 100 1009.6
20180625030605 16 225 0.0 1.6 0.00 0.00 0.00 100 1009.6
20180625030404 16 135 1.6 1.6 0.00 0.00 0.00 100 1009.6
20180625030201 16 90 0.0 1.6 0.00 0.00 0.00 100 1009.6
20180625025959 16 225 0.0 0.0 0.00 0.00 0.00 100 1009.6
20180625025757 16 112 0.0 0.0 0.00 0.00 0.00 100 1009.6
20180625025555 16 225 0.0 0.0 0.00 0.00 0.00 100 1009.6
20180625025151 16 270 0.0 0.0 0.00 0.00 0.00 100 1009.5
20180625024949 16 225 0.0 0.0 0.00 0.00 0.00 100 1009.5
20180625024747 16 180 0.0 0.0 0.00 0.00 0.00 100 1009.4
20180625024544 16 225 0.0 0.0 0.00 0.00 0.00 100 1009.5
20180625024343 16 202 0.0 0.0 0.00 0.00 0.00 100 1009.3
20180625024140 16 270 0.0 0.0 0.00 0.00 0.00 100 1009.4
20180625023939 16 78 0.0 0.0 0.00 0.00 0.00 100 1009.5
20180625023736 16 90 0.0 0.0 0.00 0.00 0.00 100 1009.4
20180625023535 16 67 0.0 0.0 0.00 0.00 0.00 100 1009.3
20180625023332 16 112 0.0 0.0 0.00 0.00 0.00 100 1009.3
20180625023130 16 180 0.0 0.0 0.00 0.00 0.00 100 1009.3
20180625022928 16 180 0.0 0.0 0.00 0.00 0.00 100 1009.4
20180625022726 16 180 0.0 1.6 0.00 0.00 0.00 100 1009.3
20180625022524 16 180 0.0 1.6 0.00 0.00 0.00 100 1009.2
20180625022322 16 180 1.6 1.6 0.00 0.00 0.00 100 1009.2
20180625022120 16 225 0.0 0.0 0.00 0.00 0.00 100 1009.2
20180625021918 16 45 0.0 0.0 0.00 0.00 0.00 100 1009.2
20180625021715 16 112 0.0 0.0 0.00 0.00 0.00 100 1009.2
20180625021514 16 135 0.0 1.6 0.00 0.00 0.00 100 1009.2
20180625021110 16 67 0.0 1.6 0.00 0.00 0.00 100 1009.3
20180625020907 16 135 0.0 1.6 0.00 0.00 0.00 100 1009.3
20180625020706 16 180 0.0 1.6 0.00 0.00 0.00 100 1009.4
20180625020503 16 270 0.0 0.0 0.00 0.00 0.00 100 1009.4
20180625020301 16 270 0.0 0.0 0.00 0.00 0.00 100 1009.5
20180625020059 16 270 0.0 0.0 0.00 0.00 0.00 100 1009.5
20180625015857 16 270 0.0 0.0 0.00 0.00 0.00 100 1009.5
20180625015655 16 135 0.0 0.0 0.00 0.00 0.00 100 1009.4
20180625015251 16 135 0.0 0.0 0.00 0.00 0.00 100 1009.6
20180625015049 16 135 0.0 0.0 0.00 0.00 0.00 100 1009.6
20180625014846 16 135 0.0 0.0 0.00 0.00 0.00 100 1009.6
20180625014645 16 135 0.0 0.0 0.00 0.00 0.00 100 1009.6
20180625014442 16 90 0.0 0.0 0.00 0.00 0.00 100 1009.5
20180625014241 16 90 0.0 0.0 0.00 0.00 0.00 100 1009.5
20180625014038 16 90 0.0 0.0 0.00 0.00 0.00 100 1009.6
20180625013837 16 90 0.0 0.0 0.00 0.00 0.00 100 1009.7
20180625013634 16 0 0.0 1.6 0.00 0.00 0.00 100 1009.6
20180625013432 16 135 0.0 1.6 0.00 0.00 0.00 100 1009.6
20180625013230 16 90 0.0 1.6 0.00 0.00 0.00 100 1009.6
20180625013029 16 135 0.0 1.6 0.00 0.00 0.00 100 1009.7
20180625012826 16 157 1.6 1.6 0.00 0.00 0.00 100 1009.6
20180625012624 16 135 0.0 3.2 0.00 0.00 0.00 100 1009.7
20180625012422 16 135 1.6 3.2 0.00 0.00 0.00 100 1009.6
20180625012220 16 90 0.0 0.0 0.00 0.00 0.00 100 1009.7
20180625012017 16 90 0.0 0.0 0.00 0.00 0.00 100 1009.6
20180625011613 16 270 0.0 0.0 0.00 0.00 0.00 100 1009.7
20180625011412 16 90 0.0 0.0 0.00 0.00 0.00 100 1009.6
20180625011209 16 90 0.0 0.0 0.00 0.00 0.00 100 1009.7
20180625011008 16 90 0.0 3.2 0.00 0.00 0.00 100 1009.6
20180625010805 16 135 0.0 3.2 0.00 0.00 0.00 100 1009.7
20180625010603 16 135 0.0 3.2 0.00 0.00 0.00 100 1009.6
20180625010402 16 135 0.0 3.2 0.00 0.00 0.00 100 1009.5
20180625010159 16 135 0.0 0.0 0.00 0.00 0.00 100 1009.6
20180625005957 16 45 0.0 1.6 0.00 0.00 0.00 100 1009.6
20180625005755 16 135 1.6 1.6 0.00 0.00 0.00 100 1009.5
20180625005553 16 90 0.0 3.2 0.00 0.00 0.00 100 1009.6
20180625005351 16 135 0.0 3.2 0.00 0.00 0.00 100 1009.5
20180625005149 16 112 3.2 3.2 0.00 0.00 0.00 100 1009.6
20180625004947 16 225 0.0 1.6 0.00 0.00 0.00 99 1009.5
20180625004543 16 90 0.0 0.0 0.00 0.00 0.00 99 1009.5
20180625004340 16 270 0.0 0.0 0.00 0.00 0.00 99 1009.4
20180625004139 16 270 0.0 0.0 0.00 0.00 0.00 99 1009.5
20180625003936 16 135 0.0 0.0 0.00 0.00 0.00 99 1009.4
20180625003734 16 135 0.0 0.0 0.00 0.00 0.00 99 1009.6
20180625003532 16 135 0.0 0.0 0.00 0.00 0.00 99 1009.5
20180625003330 16 45 0.0 0.0 0.00 0.00 0.00 99 1009.5
20180625003128 16 135 0.0 0.0 0.00 0.00 0.00 98 1009.5
20180625002926 16 135 0.0 0.0 0.00 0.00 0.00 98 1009.7
20180625002724 16 135 0.0 0.0 0.00 0.00 0.00 99 1009.5
20180625002522 16 213 0.0 3.2 0.00 0.00 0.00 99 1009.7
20180625002320 16 135 1.6 3.2 0.00 0.00 0.00 99 1009.6
20180625002118 16 90 0.0 1.6 0.00 0.00 0.00 99 1009.6
20180625001915 16 180 0.0 1.6 0.00 0.00 0.00 99 1009.7
20180625001714 16 180 0.0 1.6 0.00 0.00 0.00 99 1009.8
20180625001511 16 90 0.0 0.0 0.00 0.00 0.00 98 1009.7
20180625001310 16 112 0.0 1.6 0.00 0.00 0.00 98 1009.7
20180625001107 16 135 1.6 1.6 0.00 0.00 0.00 98 1009.7
20180625000905 16 90 0.0 0.0 0.00 0.00 0.00 98 1009.7
20180625000703 16 135 0.0 1.6 0.00 0.00 0.00 98 1009.7
20180625000501 16 135 0.0 1.6 0.00 0.00 0.00 98 1009.8
20180625000259 17 90 0.0 1.6 0.00 0.00 0.00 97 1009.9
20180625000057 17 180 0.0 1.6 0.00 0.00 0.00 97 1009.9
20180624235855 17 225 0.0 1.6 0.00 0.00 0.00 97 1009.8
20180624235653 17 135 0.0 1.6 0.00 0.00 0.00 97 1009.9
20180624235451 17 225 0.0 1.6 0.00 0.00 0.00 97 1009.8
20180624235249 17 135 0.0 1.6 0.00 0.00 0.00 97 1009.9
20180624235046 17 135 0.0 1.6 0.00 0.00 0.00 97 1009.8
20180624234845 17 225 0.0 1.6 0.00 0.00 0.00 97 1009.9
20180624234642 17 90 1.6 1.6 0.00 0.00 0.00 96 1009.9
20180624234441 17 90 0.0 1.6 0.00 0.00 0.00 97 1009.9
20180624234238 17 180 0.0 3.2 0.00 0.00 0.00 97 1009.9
20180624234037 17 135 0.0 3.2 0.00 0.00 0.00 96 1010.0
20180624233834 17 180 3.2 3.2 0.00 0.00 0.00 97 1010.0
20180624233632 17 112 0.0 1.6 0.00 0.00 0.00 96 1010.0
20180624233430 17 157 0.0 1.6 0.00 0.00 0.00 97 1009.9
20180624233228 17 90 0.0 1.6 0.00 0.00 0.00 97 1010.0
20180624233026 17 202 0.0 1.6 0.00 0.00 0.00 97 1010.0
20180624232824 17 337 1.6 1.6 0.00 0.00 0.00 96 1010.0
20180624232622 17 270 0.0 3.2 0.00 0.00 0.00 97 1010.0
20180624232420 17 270 0.0 3.2 0.00 0.00 0.00 96 1010.0
20180624232217 17 270 0.0 3.2 0.00 0.00 0.00 96 1010.0
20180624231808 17 270 0.0 1.6 0.00 0.00 0.00 95 1009.9
20180624231607 17 0 0.0 3.2 0.00 0.00 0.00 95 1009.8
20180624231404 17 112 0.0 3.2 0.00 0.00 0.00 95 1009.9
20180624231203 17 112 0.0 1.6 0.00 0.00 0.00 95 1009.8
20180624231000 17 112 0.0 1.6 0.00 0.00 0.00 95 1009.9
20180624230758 17 135 0.0 1.6 0.00 0.00 0.00 94 1009.9
20180624230556 17 270 0.0 1.6 0.00 0.00 0.00 94 1009.8
20180624230354 17 112 0.0 1.6 0.00 0.00 0.00 93 1009.8
20180624230152 17 270 0.0 1.6 0.00 0.00 0.00 94 1009.8
20180624225950 17 112 0.0 3.2 0.00 0.00 0.00 93 1009.8
20180624225748 17 112 0.0 3.2 0.00 0.00 0.00 94 1009.7
20180624225546 17 270 0.0 0.0 0.00 0.00 0.00 93 1009.8
20180624225343 17 67 0.0 0.0 0.00 0.00 0.00 93 1009.8
20180624225142 17 112 0.0 3.2 0.00 0.00 0.00 93 1009.8
20180624224939 17 112 0.0 4.8 0.00 0.00 0.00 94 1009.8
20180624224738 17 112 0.0 4.8 0.00 0.00 0.00 93 1009.8
20180624224535 17 22 4.8 4.8 0.00 0.00 0.00 93 1009.8
20180624224131 18 112 1.6 1.6 0.00 0.00 0.00 93 1009.8
20180624223929 18 112 0.0 4.8 0.00 0.00 0.00 93 1009.8
20180624223727 18 0 1.6 4.8 0.00 0.00 0.00 93 1009.8
20180624223525 18 112 1.6 1.6 0.00 0.00 0.00 93 1009.8
20180624223323 18 0 0.0 3.2 0.00 0.00 0.00 93 1009.9
20180624223121 18 0 3.2 3.2 0.00 0.00 0.00 94 1009.9
20180624222919 18 270 1.6 3.2 0.00 0.00 0.00 93 1009.9
20180624222717 18 45 0.0 4.8 0.00 0.00 0.00 93 1009.8
20180624222515 18 270 0.0 4.8 0.00 0.00 0.00 93 1009.9
20180624222110 18 112 1.6 1.6 0.00 0.00 0.00 93 1010.0
20180624221909 18 112 0.0 3.2 0.00 0.00 0.00 93 1010.0
20180624221706 18 0 0.0 3.2 0.00 0.00 0.00 92 1010.0
20180624221505 18 67 3.2 3.2 0.00 0.00 0.00 93 1009.9
20180624221302 18 270 0.0 1.6 0.00 0.00 0.00 93 1010.0
20180624221100 18 0 1.6 3.2 0.00 0.00 0.00 92 1009.9
20180624220858 18 0 0.0 3.2 0.00 0.00 0.00 92 1010.0
20180624220656 18 112 0.0 1.6 0.00 0.00 0.00 92 1009.9
20180624220454 18 67 0.0 0.0 0.00 0.00 0.00 92 1009.9
20180624220252 18 112 0.0 4.8 0.00 0.00 0.00 92 1009.9
20180624220050 18 112 0.0 4.8 0.00 0.00 0.00 92 1009.9
20180624215848 18 67 0.0 4.8 0.00 0.00 0.00 92 1009.8
20180624215646 18 112 0.0 1.6 0.00 0.00 0.00 92 1009.8
20180624215444 18 112 1.6 1.6 0.00 0.00 0.00 92 1009.9
20180624215241 18 0 0.0 1.6 0.00 0.00 0.00 92 1009.9
20180624215040 18 0 0.0 3.2 0.00 0.00 0.00 92 1009.8
20180624214837 18 270 0.0 3.2 0.00 0.00 0.00 92 1009.8
20180624214636 18 337 0.0 1.6 0.00 0.00 0.00 92 1009.9
20180624214232 18 112 1.6 1.6 0.00 0.00 0.00 91 1009.8
20180624214029 18 303 0.0 1.6 0.00 0.00 0.00 91 1009.8
20180624213827 18 270 0.0 1.6 0.00 0.00 0.00 91 1009.7
20180624213625 18 337 0.0 1.6 0.00 0.00 0.00 91 1009.8
20180624213423 18 337 0.0 1.6 0.00 0.00 0.00 90 1009.6
20180624213221 18 270 1.6 3.2 0.00 0.00 0.00 92 1009.7
20180624213019 18 270 1.6 3.2 0.00 0.00 0.00 90 1009.7
20180624212817 18 112 0.0 3.2 0.00 0.00 0.00 90 1009.6
20180624212615 18 112 0.0 3.2 0.00 0.00 0.00 90 1009.6
20180624212412 18 112 1.6 3.2 0.00 0.00 0.00 90 1009.7
20180624212211 18 270 0.0 1.6 0.00 0.00 0.00 90 1009.6
20180624211807 18 67 0.0 4.8 0.00 0.00 0.00 90 1009.6
20180624211604 18 270 0.0 0.0 0.00 0.00 0.00 89 1009.6
20180624211403 18 270 0.0 4.8 0.00 0.00 0.00 89 1009.5
20180624211200 18 78 3.2 4.8 0.00 0.00 0.00 90 1009.5
20180624210958 18 112 1.6 4.8 0.00 0.00 0.00 90 1009.6
20180624210756 18 270 1.6 4.8 0.00 0.00 0.00 89 1009.5
20180624210554 18 112 4.8 4.8 0.00 0.00 0.00 89 1009.5
20180624210352 18 270 1.6 4.8 0.00 0.00 0.00 88 1009.6
20180624210150 18 0 1.6 4.8 0.00 0.00 0.00 89 1009.5
20180624205948 18 22 1.6 3.2 0.00 0.00 0.00 88 1009.5
20180624205746 18 11 3.2 4.8 0.00 0.00 0.00 88 1009.4
20180624205543 18 0 1.6 4.8 0.00 0.00 0.00 88 1009.4
20180624205342 18 348 0.0 4.8 0.00 0.00 0.00 87 1009.5
20180624205139 18 0 1.6 4.8 0.00 0.00 0.00 87 1009.4
20180624204938 18 112 1.6 4.8 0.00 0.00 0.00 87 1009.4
20180624204735 18 112 1.6 3.2 0.00 0.00 0.00 87 1009.4
20180624204331 18 0 1.6 4.8 0.00 0.00 0.00 87 1009.4
20180624203927 19 112 1.6 9.7 0.00 0.00 0.00 86 1009.3
20180624203119 19 112 3.2 6.4 0.00 0.00 0.00 86 1009.1
20180624202513 19 112 1.6 8.0 0.00 0.00 0.00 85 1009.0
20180624202109 20 270 1.6 1.6 0.00 0.00 0.00 84 1009.0
20180624201906 20 270 0.0 8.0 0.00 0.00 0.00 84 1009.0
20180624201705 20 112 0.0 8.0 0.00 0.00 0.00 83 1009.0
20180624201502 20 270 1.6 4.8 0.00 0.00 0.00 83 1008.9
20180624201300 20 270 1.6 6.4 0.00 0.00 0.00 83 1008.9
20180624201058 20 78 0.0 6.4 0.00 0.00 0.00 83 1008.9
20180624200856 20 112 3.2 3.2 0.00 0.00 0.00 83 1008.9
20180624200654 20 0 3.2 4.8 0.00 0.00 0.00 83 1008.9
20180624200452 20 112 1.6 4.8 0.00 0.00 0.00 82 1008.9
20180624200250 20 337 1.6 6.4 0.00 0.00 0.00 82 1008.8
20180624200048 20 337 1.6 6.4 0.00 0.00 0.00 82 1008.9
20180624195845 20 303 0.0 4.8 0.00 0.00 0.00 80 1008.8
20180624195644 21 270 4.8 4.8 0.00 0.00 0.00 81 1008.8
20180624195441 21 180 1.6 3.2 0.00 0.00 0.00 82 1008.8
20180624195240 21 337 1.6 4.8 0.00 0.00 0.00 81 1008.7
20180624195037 21 337 0.0 4.8 0.00 0.00 0.00 80 1008.8
20180624194633 21 112 3.2 3.2 0.00 0.00 0.00 80 1008.6
20180624194229 21 112 0.0 3.2 0.00 0.00 0.00 78 1008.7
20180624194028 21 270 3.2 3.2 0.00 0.00 0.00 79 1008.6
20180624193825 21 135 3.2 4.8 0.00 0.00 0.00 78 1008.6